Wendover, UT

2:41 PM MDT on April 28, 2017 (GMT -0600)
Wendover

Weather History for KENV - March, 2013

Change the Weather History Date:

Thursday, March 21, 2013

  Actual Average Record
Temperature  
Mean Temperature 42 °F -  
Max Temperature 51 °F 54 °F 75 °F (2017)
Min Temperature 33 °F 33 °F 20 °F (1955)
Degree Days  
Heating Degree Days 23    
Moisture  
Dew Point 15 °F    
Average Humidity 35    
Maximum Humidity 70    
Minimum Humidity 16    
Precipitation  
Precipitation 0.00 in - - ()
Sea Level Pressure  
Sea Level Pressure 29.94 in    
Wind  
Wind Speed 15 mph (NNW)    
Max Wind Speed 34 mph    
Max Gust Speed 47 mph    
Visibility 10 miles    
Events      
Averages and records for this station are not official NWS values.
T = Trace of Precipitation, MM = Missing Value Source: NWS Daily Summary

Daily Weather History Graph

Daily Weather History Graph

Search for Another Location

Airport or City:

Trip Planner

Search our weather history database for the weather conditions in past years. The results will help you decide how hot, cold, wet, or windy it might be!

Date:

Astronomy

Mar. 21, 2013 Rise Set
Actual Time 7:37 AM MDT 7:49 PM MDT
Civil Twilight 7:09 AM MDT 8:17 PM MDT
Nautical Twilight 6:38 AM MDT 8:49 PM MDT
Astronomical Twilight 6:05 AM MDT 9:21 PM MDT
Moon 2:21 PM MDT (3/21) 4:03 AM MDT (3/21)
Length of Visible Light 13h 07m
Length of Day
12h 12m
Waxing Gibbous, 69% of the Moon is Illuminated
Mar 21
Waxing Gibbous
Mar 27
Full
Apr 2
Last Quarter
Apr 10
New
Apr 18
First Quarter

Hourly Weather History & Observations

Time (MDT) Temp. Windchill Dew Point Humidity Pressure Visibility Wind Dir Wind Speed Gust Speed Precip Events Conditions
12:15 AM 48.2 °F - 33.8 °F 58% 29.77 in 10.0 mi West 3.5 mph - N/A   Clear
12:35 AM 51.8 °F - 28.4 °F 41% 29.77 in 10.0 mi WNW 13.8 mph - N/A   Clear
12:55 AM 51.8 °F - 26.6 °F 38% 29.78 in 10.0 mi NW 12.7 mph - N/A   Clear
1:15 AM 51.8 °F - 26.6 °F 38% 29.78 in 10.0 mi NNW 10.4 mph - N/A   Clear
1:35 AM 51.8 °F - 26.6 °F 38% 29.78 in 10.0 mi North 8.1 mph - N/A   Clear
1:55 AM 48.2 °F - 24.8 °F 40% 29.78 in 10.0 mi North 8.1 mph - N/A   Clear
2:15 AM 50.0 °F - 24.8 °F 37% 29.78 in 10.0 mi West 10.4 mph - N/A   Partly Cloudy
2:35 AM 48.2 °F - 24.8 °F 40% 29.77 in 10.0 mi West 6.9 mph - N/A   Clear
2:55 AM 48.2 °F - 24.8 °F 40% 29.77 in 10.0 mi WNW 11.5 mph 16.1 mph N/A   Clear
3:15 AM 48.2 °F - 23.0 °F 37% 29.78 in 10.0 mi WNW 18.4 mph 29.9 mph N/A   Clear
3:35 AM 48.2 °F - 23.0 °F 37% 29.79 in 10.0 mi North 24.2 mph 32.2 mph N/A   Clear
3:55 AM 42.8 °F 31.6 °F 26.6 °F 53% 29.81 in 10.0 mi North 34.5 mph 43.7 mph N/A   Clear
4:15 AM 37.4 °F 25.2 °F 24.8 °F 60% 29.83 in 10.0 mi NNW 28.8 mph 41.4 mph N/A   Clear
4:35 AM 37.4 °F 24.6 °F 26.6 °F 65% 29.82 in 10.0 mi NNW 32.2 mph 40.3 mph N/A   Clear
4:55 AM 35.6 °F 22.1 °F 26.6 °F 70% 29.86 in 5.0 mi NW 32.2 mph 46.0 mph N/A   Mostly Cloudy
5:15 AM 35.6 °F 23.0 °F 26.6 °F 70% 29.88 in 4.0 mi NW 27.6 mph 34.5 mph N/A   Mostly Cloudy
5:35 AM 37.4 °F 25.0 °F 23.0 °F 56% 29.87 in 10.0 mi NW 29.9 mph 47.2 mph N/A   Partly Cloudy
5:55 AM 37.4 °F 28.2 °F 19.4 °F 48% 29.90 in 10.0 mi NW 16.1 mph 24.2 mph N/A   Clear
6:15 AM 37.4 °F 28.2 °F 17.6 °F 45% 29.93 in 10.0 mi NW 16.1 mph 24.2 mph N/A   Mostly Cloudy
6:35 AM 35.6 °F 26.6 °F 19.4 °F 52% 29.94 in 10.0 mi NW 13.8 mph 24.2 mph N/A   Partly Cloudy
6:55 AM 35.6 °F 24.0 °F 17.6 °F 48% 29.94 in 10.0 mi NW 23.0 mph 31.1 mph N/A   Clear
7:15 AM 35.6 °F 22.5 °F 15.8 °F 44% 29.94 in 10.0 mi NW 29.9 mph 36.8 mph N/A   Clear
7:35 AM 33.8 °F 20.5 °F 12.2 °F 41% 29.94 in 10.0 mi NW 27.6 mph 36.8 mph N/A   Clear
7:55 AM 33.8 °F 20.3 °F 12.2 °F 41% 29.95 in 10.0 mi NW 28.8 mph 35.7 mph N/A   Clear
8:15 AM 33.8 °F 20.5 °F 12.2 °F 41% 29.97 in 10.0 mi NW 27.6 mph 34.5 mph N/A   Clear
8:35 AM 33.8 °F 20.1 °F 12.2 °F 41% 29.97 in 10.0 mi NW 29.9 mph 35.7 mph N/A   Clear
8:55 AM 33.8 °F 22.2 °F 12.2 °F 41% 29.97 in 10.0 mi NNW 20.7 mph 31.1 mph N/A   Clear
9:15 AM 33.8 °F 21.3 °F 12.2 °F 41% 29.98 in 10.0 mi NNW 24.2 mph 31.1 mph N/A   Clear
9:35 AM 35.6 °F 23.2 °F 12.2 °F 38% 29.99 in 10.0 mi NW 26.5 mph 33.4 mph N/A   Clear
9:55 AM 35.6 °F 23.7 °F 10.4 °F 35% 30.00 in 10.0 mi NNW 24.2 mph 33.4 mph N/A   Clear
10:15 AM 37.4 °F 26.6 °F 10.4 °F 33% 30.02 in 10.0 mi NNW 21.9 mph 33.4 mph N/A   Clear
10:35 AM 37.4 °F 28.5 °F 10.4 °F 33% 30.03 in 10.0 mi North 15.0 mph 24.2 mph N/A   Clear
10:55 AM 37.4 °F 27.2 °F 10.4 °F 33% 30.02 in 10.0 mi NNW 19.6 mph 32.2 mph N/A   Clear
11:15 AM 39.2 °F 28.3 °F 10.4 °F 31% 30.02 in 10.0 mi NW 25.3 mph 36.8 mph N/A   Clear
11:55 AM 41.0 °F 30.9 °F 8.6 °F 26% 30.02 in 10.0 mi NW 24.2 mph 39.1 mph N/A   Clear
12:15 PM 42.8 °F 34.3 °F 10.4 °F 27% 30.03 in 10.0 mi North 19.6 mph 36.8 mph N/A   Clear
12:35 PM 42.8 °F 34.5 °F 8.6 °F 25% 30.04 in 10.0 mi NNW 18.4 mph 29.9 mph N/A   Clear
12:55 PM 42.8 °F 37.0 °F 8.6 °F 25% 30.04 in 10.0 mi North 10.4 mph 20.7 mph N/A   Clear
1:15 PM 42.8 °F 37.0 °F 8.6 °F 25% 30.03 in 10.0 mi NNW 10.4 mph 20.7 mph N/A   Clear
1:35 PM 44.6 °F 38.4 °F 6.8 °F 21% 30.03 in 10.0 mi North 12.7 mph 19.6 mph N/A   Clear
1:55 PM 44.6 °F 37.8 °F 6.8 °F 21% 30.03 in 10.0 mi NNW 15.0 mph 25.3 mph N/A   Clear
2:15 PM 44.6 °F 38.8 °F 6.8 °F 21% 30.02 in 10.0 mi NNW 11.5 mph 19.6 mph N/A   Clear
2:35 PM 44.6 °F 39.7 °F 8.6 °F 23% 30.01 in 10.0 mi NNW 9.2 mph 17.3 mph N/A   Clear
2:55 PM 44.6 °F 40.7 °F 8.6 °F 23% 30.01 in 10.0 mi NNW 6.9 mph - N/A   Clear
3:15 PM 46.4 °F 42.9 °F 8.6 °F 22% 29.99 in 10.0 mi NW 6.9 mph 16.1 mph N/A   Clear
3:35 PM 48.2 °F - 8.6 °F 20% 29.98 in 10.0 mi West 13.8 mph 20.7 mph N/A   Clear
3:55 PM 46.4 °F 42.4 °F 8.6 °F 22% 29.98 in 10.0 mi NW 8.1 mph 17.3 mph N/A   Clear
4:15 PM 48.2 °F - 8.6 °F 20% 29.97 in 10.0 mi West 10.4 mph 19.6 mph N/A   Clear
4:35 PM 48.2 °F - 8.6 °F 20% 29.95 in 10.0 mi NW 9.2 mph - N/A   Clear
4:55 PM 48.2 °F - 6.8 °F 19% 29.95 in 10.0 mi NW 15.0 mph 25.3 mph N/A   Clear
5:15 PM 50.0 °F - 5.0 °F 16% 29.94 in 10.0 mi WNW 13.8 mph 23.0 mph N/A   Clear
5:35 PM 48.2 °F - 6.8 °F 19% 29.94 in 10.0 mi NNW 10.4 mph - N/A   Clear
5:55 PM 48.2 °F - 6.8 °F 19% 29.94 in 10.0 mi NNW 8.1 mph 25.3 mph N/A   Clear
6:15 PM 48.2 °F - 8.6 °F 20% 29.94 in 10.0 mi North 11.5 mph - N/A   Clear
6:35 PM 48.2 °F - 10.4 °F 22% 29.94 in 10.0 mi NNW 8.1 mph - N/A   Clear
6:55 PM 46.4 °F 40.7 °F 10.4 °F 23% 29.95 in 10.0 mi North 12.7 mph - N/A   Clear
7:15 PM 46.4 °F 42.4 °F 10.4 °F 23% 29.95 in 10.0 mi NNW 8.1 mph - N/A   Scattered Clouds
7:35 PM 44.6 °F 38.4 °F 12.2 °F 27% 29.97 in 10.0 mi NNW 12.7 mph - N/A   Mostly Cloudy
7:55 PM 42.8 °F 37.0 °F 6.8 °F 23% 29.97 in 10.0 mi North 10.4 mph - N/A   Partly Cloudy
8:15 PM 42.8 °F 36.6 °F 10.4 °F 27% 29.98 in 10.0 mi NNE 11.5 mph - N/A   Clear
8:35 PM 41.0 °F 35.2 °F 10.4 °F 29% 29.98 in 10.0 mi NE 9.2 mph - N/A   Clear
8:55 PM 39.2 °F 32.0 °F 12.2 °F 33% 29.97 in 10.0 mi NE 11.5 mph - N/A   Clear
9:15 PM 37.4 °F 32.1 °F 12.2 °F 36% 29.97 in 10.0 mi NE 6.9 mph - N/A   Clear
9:35 PM 37.4 °F 30.3 °F 15.8 °F 41% 29.97 in 10.0 mi NE 10.4 mph - N/A   Clear
9:55 PM 37.4 °F 29.8 °F 15.8 °F 41% 29.97 in 10.0 mi NE 11.5 mph - N/A   Clear
10:15 PM 35.6 °F 29.9 °F 14.0 °F 41% 29.98 in 10.0 mi NE 6.9 mph - N/A   Clear
10:35 PM 33.8 °F 27.7 °F 14.0 °F 44% 29.98 in 10.0 mi ENE 6.9 mph - N/A   Clear
10:55 PM 35.6 °F 30.7 °F 15.8 °F 44% 29.99 in 10.0 mi NE 5.8 mph - N/A   Clear
11:15 PM 35.6 °F 31.7 °F 14.0 °F 41% 29.98 in 10.0 mi SW 4.6 mph - N/A   Clear
11:35 PM 35.6 °F 30.7 °F 14.0 °F 41% 29.99 in 10.0 mi SW 5.8 mph - N/A   Clear
11:55 PM 33.8 °F 30.8 °F 12.2 °F 41% 29.99 in 10.0 mi NW 3.5 mph - N/A   Clear